Theta_e
309 307 306 307 307 307 308 308 310 310 311 312 311 312 313 312 312 313 313 312 312 312 309 308 309 310 311 312 313 313 312 311 310 309 309 309 309 311 311 311 312 314 317 321 318 313 313 315 317 319 320 319 319 320 320 320 320 319 320 321 321 319 318 317 317 316 316 315 315 314 314 313 312 312 311 311 310 309 308 308 307 307 306 305 305 304 304
309 307 308 308 307 308 308 308 309 309 310 311 310 310 310 309 311 312 312 312 311 310 308 308 309 309 310 310 311 311 310 310 311 310 310 311 311 311 311 311 311 312 315 318 316 311 312 314 315 316 318 317 317 319 319 319 319 319 319 320 320 318 317 317 316 316 316 315 315 314 313 312 311 311 310 309 308 308 307 307 306 306 305 305 304 303 302
310 308 308 308 307 308 308 307 308 308 310 310 309 309 309 308 310 311 311 312 311 308 307 309 311 310 309 310 310 311 311 312 313 312 311 311 311 311 311 311 311 312 314 319 320 314 311 313 313 314 316 316 316 317 318 318 318 319 319 319 318 317 316 316 316 316 315 315 314 313 312 311 311 310 309 308 307 307 307 306 305 305 304 303 303 302 301
310 307 308 309 308 309 307 307 308 308 310 311 310 309 309 309 309 310 310 311 309 307 307 309 311 311 310 310 310 312 314 314 313 313 313 312 311 310 310 310 311 310 312 317 321 316 313 313 314 314 315 315 315 316 317 317 318 318 318 317 317 316 316 315 315 315 315 314 313 312 311 310 309 308 308 307 307 306 305 305 304 303 303 302 302 301 300
308 307 308 310 310 309 307 309 312 310 309 310 310 310 311 310 309 310 311 310 308 307 308 309 311 312 311 311 311 311 312 313 313 313 313 312 311 310 311 311 311 311 311 312 315 315 314 314 314 314 314 314 315 317 317 317 317 317 316 316 316 315 314 314 314 313 312 311 310 310 309 309 308 307 307 306 306 305 304 304 303 303 302 302 301 300 300
308 308 308 309 309 307 306 308 312 310 309 311 310 311 312 311 310 311 311 310 309 309 311 311 312 312 312 311 311 310 310 312 312 312 311 312 312 312 313 313 312 312 310 309 310 312 314 314 314 315 315 314 315 317 316 316 316 316 315 315 314 314 313 313 313 312 310 310 309 309 308 307 306 306 306 305 305 304 304 303 302 302 301 301 300 300 299
308 308 307 308 307 307 306 308 311 309 309 311 310 310 311 310 311 312 310 310 311 312 313 313 313 313 312 312 311 311 311 311 311 310 311 311 311 311 312 312 312 311 309 309 310 312 314 314 314 315 315 314 315 315 315 315 315 315 315 314 313 313 312 312 311 310 310 309 308 307 306 305 305 305 305 304 304 303 303 302 302 301 300 300 299 299 299
308 307 308 307 306 306 306 308 312 314 314 315 314 314 314 312 311 313 312 311 311 312 312 312 312 312 312 311 310 311 312 310 309 309 310 309 309 309 310 311 311 310 309 310 312 313 314 314 315 315 315 314 314 314 314 314 315 315 314 313 312 311 310 310 309 308 308 307 306 305 305 305 304 304 304 303 303 302 301 301 300 300 299 299 299 298 298
307 307 308 308 306 306 306 309 314 317 317 317 316 315 316 313 311 313 314 312 312 312 311 311 311 311 311 310 310 311 310 308 308 309 308 308 309 309 309 310 310 310 311 312 312 312 313 314 315 316 314 313 313 313 313 313 313 313 313 311 311 310 308 308 307 306 305 305 304 304 304 304 304 303 303 302 302 301 300 300 299 299 298 298 298 297 297
308 308 308 308 307 306 308 312 314 314 314 315 314 314 313 311 309 311 312 311 311 312 312 313 312 312 311 310 310 310 309 307 307 308 307 308 308 309 309 310 311 311 312 313 313 312 313 313 315 314 313 312 312 312 312 312 312 311 311 310 309 308 308 307 306 305 305 304 303 303 303 303 303 302 302 302 301 300 300 299 298 298 298 297 297 297 296
309 309 308 308 307 306 310 313 313 312 313 315 315 313 310 309 308 309 309 310 310 311 312 313 312 311 312 310 308 308 308 307 307 308 308 308 308 308 310 311 311 311 311 312 313 313 313 313 314 313 311 310 311 311 310 310 310 309 309 308 308 308 307 306 305 304 303 303 302 302 303 302 302 302 301 301 300 300 299 298 298 297 296 296 295 295 295
308 309 308 307 305 306 310 312 311 312 312 313 313 310 307 309 310 309 309 310 309 309 311 311 310 311 311 309 307 307 308 306 307 308 309 308 307 308 310 311 310 310 310 310 312 313 312 312 313 312 310 310 310 310 309 308 308 308 307 306 306 305 304 303 303 302 302 302 302 302 302 301 301 301 301 300 300 299 298 297 297 296 295 294 293 294 294
309 309 308 307 307 308 310 310 310 310 310 310 310 308 307 308 309 309 310 310 308 309 310 311 311 311 311 308 307 307 307 307 309 308 307 307 307 307 309 310 309 309 310 309 310 311 311 311 311 311 310 310 309 309 308 308 307 305 304 304 303 303 302 302 302 302 302 302 301 301 301 301 301 301 301 300 299 298 298 297 297 296 294 293 293 293 294
308 308 307 307 307 307 308 310 309 308 308 308 308 308 306 306 307 308 309 308 308 309 310 311 311 311 310 308 308 308 307 308 310 308 306 306 306 306 309 310 309 307 308 308 308 310 310 309 309 310 310 309 308 308 308 307 305 303 303 303 302 302 302 302 302 301 301 301 301 301 301 301 300 300 299 299 298 297 297 297 296 295 294 294 294 294 294
305 305 305 305 305 306 308 309 307 308 310 309 305 304 305 305 306 308 308 307 308 308 308 309 310 310 309 309 309 308 308 310 310 307 305 305 305 306 308 310 308 306 306 307 308 309 309 307 308 310 310 309 308 307 306 304 303 303 303 302 302 302 302 301 301 301 301 301 300 300 299 299 298 298 298 298 298 297 297 296 296 295 295 295 295 294 293
305 305 304 304 306 308 309 307 306 309 311 307 303 305 306 307 309 309 308 308 309 308 308 309 309 309 309 309 309 309 309 310 310 307 304 303 304 306 307 309 308 306 305 307 308 309 308 308 308 309 309 308 307 305 303 302 302 302 302 301 301 302 301 301 301 300 299 299 298 298 298 298 298 298 298 298 297 297 296 296 296 295 295 295 294 294 293
303 303 304 304 305 306 307 307 307 308 307 305 306 307 307 308 309 308 308 310 310 309 308 309 308 308 308 308 308 308 309 311 310 307 304 303 304 306 306 307 307 306 305 306 308 308 308 308 308 308 308 306 304 303 302 302 302 302 301 301 302 301 301 300 299 299 298 298 298 298 298 298 298 298 298 297 297 296 296 296 295 295 295 294 294 293 292
301 301 302 303 303 303 304 304 304 304 305 305 307 308 308 309 311 309 309 310 310 308 308 308 308 308 307 308 307 306 307 310 309 306 305 304 304 305 306 305 306 306 306 306 308 308 308 308 308 308 307 305 303 302 303 303 302 302 301 301 301 301 300 299 298 298 299 299 299 299 298 298 298 297 297 297 297 296 296 296 295 295 294 293 292 291 291
301 301 301 301 301 301 301 302 302 303 305 305 306 307 307 308 309 309 309 310 309 308 308 308 308 307 307 307 306 304 306 308 309 308 307 305 304 305 306 306 306 306 307 308 308 308 308 308 307 307 305 304 303 303 303 303 302 302 302 301 301 300 299 299 299 299 299 299 299 299 299 299 298 298 297 297 297 296 296 295 295 294 293 292 291 291 291
300 300 300 299 299 300 300 302 302 303 305 305 306 307 307 307 308 309 309 309 309 308 308 307 307 307 306 305 305 304 305 307 309 308 306 305 305 306 306 306 306 306 307 308 307 307 307 307 307 305 304 303 303 303 303 302 302 302 302 301 300 300 299 299 299 299 299 299 299 299 299 298 298 298 297 297 296 296 295 295 294 293 292 291 291 291 291
299 299 300 300 300 300 300 302 302 301 304 306 306 306 306 307 308 309 308 308 307 307 307 306 306 305 305 304 304 304 305 305 306 305 304 304 306 306 305 305 306 306 307 307 307 307 307 307 306 304 303 303 303 303 302 302 301 301 301 301 300 300 299 300 300 299 300 299 299 299 299 298 297 297 297 297 296 296 295 295 294 293 292 291 291 291 291
301 300 300 300 301 300 300 301 301 301 303 304 305 305 304 306 308 310 310 309 306 304 304 304 304 304 304 303 303 303 304 304 304 303 303 303 305 305 304 305 305 305 305 307 307 306 306 306 305 303 303 303 303 302 302 302 301 301 301 301 300 300 300 300 300 300 300 299 299 299 298 298 297 297 297 297 296 296 295 295 294 293 292 292 290 290 291
300 300 300 301 302 301 301 301 301 301 301 302 303 304 304 305 308 309 309 308 306 305 304 303 303 303 302 302 302 303 303 304 304 304 303 303 303 303 304 305 305 304 305 307 307 306 306 305 304 303 303 302 302 302 302 302 301 301 301 301 301 300 300 300 300 300 300 300 299 299 298 298 297 297 297 296 296 295 295 294 294 294 293 292 291 289 290
299 300 301 301 302 301 301 301 302 302 301 302 304 304 304 305 308 308 307 306 306 306 305 303 301 302 302 302 303 303 303 304 304 304 304 303 303 304 305 305 305 305 305 306 306 306 305 304 303 303 303 302 302 302 302 302 302 301 301 301 301 300 300 300 300 300 300 300 299 298 298 298 297 297 296 296 295 295 295 294 294 294 294 294 292 289 289
299 300 300 301 301 301 301 302 302 303 303 304 305 305 304 305 306 305 306 306 304 304 305 303 302 302 302 302 302 302 303 304 304 304 304 305 305 306 306 306 306 306 306 307 307 306 305 304 303 303 303 302 302 302 302 302 302 301 301 301 301 301 301 300 300 300 300 300 299 298 298 298 297 297 296 295 295 295 294 294 295 294 294 294 293 290 289
300 301 302 301 302 302 302 302 303 304 304 304 304 304 303 303 304 304 304 304 303 302 302 302 302 302 302 301 302 302 303 303 304 304 304 305 306 306 305 306 306 306 306 307 307 306 305 303 303 303 303 302 303 302 302 302 302 302 301 301 301 301 301 300 300 300 299 299 299 298 298 298 297 297 296 295 295 295 295 295 294 294 294 293 293 291 290
302 302 302 301 301 301 302 302 303 304 303 303 304 304 302 301 303 303 302 303 302 302 302 302 301 301 301 301 302 303 303 304 304 304 304 305 305 304 304 305 306 305 305 306 306 305 304 303 303 303 302 303 303 302 302 302 302 302 302 301 301 301 300 300 300 299 299 299 299 299 298 298 297 297 296 295 295 295 295 295 294 294 294 293 293 292 291
302 302 303 301 300 301 302 302 302 303 302 302 303 303 302 302 303 303 303 304 304 302 302 301 300 300 301 302 303 303 303 304 303 303 303 304 304 302 302 303 304 304 304 304 305 304 303 303 303 302 302 302 303 302 302 302 302 302 302 302 301 300 300 299 299 299 299 299 299 299 298 297 297 296 296 295 295 295 295 295 294 294 294 293 293 292 291
301 302 303 302 301 301 302 302 302 303 303 303 303 302 302 304 305 305 305 304 303 302 302 302 301 301 302 303 303 303 303 303 303 301 301 302 302 301 301 301 302 303 303 303 303 303 302 302 302 301 301 301 302 302 302 302 302 302 301 301 300 300 300 300 300 299 299 299 299 299 299 297 296 296 296 295 295 295 295 295 294 294 294 293 293 292 292
301 302 302 302 302 303 303 303 302 303 304 304 303 303 303 304 304 303 303 302 302 302 302 302 301 301 302 303 303 303 302 302 301 301 300 300 300 299 300 301 301 301 301 301 302 303 303 302 302 302 301 301 301 301 301 301 300 300 300 300 300 300 301 301 300 300 299 299 300 301 299 297 296 296 296 295 294 295 295 295 294 294 294 293 293 292 292
302 302 302 302 303 303 303 303 303 303 303 304 304 304 304 304 304 303 302 302 302 303 302 301 301 301 302 302 303 303 302 301 300 300 300 300 299 299 299 300 300 300 300 300 301 302 302 302 301 301 301 301 301 301 301 300 300 300 301 301 301 301 301 301 301 300 299 299 301 301 299 297 296 296 296 295 294 294 295 295 294 294 294 293 293 292 292
302 302 302 301 302 302 302 302 302 302 302 303 304 305 305 305 305 305 303 302 302 302 301 301 301 302 302 302 302 302 301 301 300 300 300 300 299 299 298 298 299 299 299 299 299 300 301 301 300 300 300 300 300 300 301 301 301 302 302 302 302 302 302 302 301 300 299 300 301 301 299 298 297 297 297 296 295 294 294 294 294 294 294 293 293 292 292
301 301 300 300 300 300 299 299 300 300 300 300 302 303 303 304 304 304 302 301 300 300 300 301 302 302 302 302 301 301 300 299 299 299 299 298 298 298 297 297 297 297 297 297 298 299 300 300 300 299 299 298 299 299 300 301 302 302 302 302 302 302 302 302 302 301 300 300 301 300 299 298 297 297 297 296 295 295 294 294 294 294 294 293 293 292 292
300 299 298 297 297 297 297 298 298 298 299 300 302 303 303 302 301 301 300 300 300 301 301 301 302 302 301 301 300 299 298 297 297 297 297 297 297 296 296 295 295 295 295 296 296 297 298 299 299 298 297 297 298 298 299 300 301 302 302 302 302 302 302 302 302 301 300 300 300 300 299 299 298 298 298 297 296 296 295 295 294 294 294 294 293 292 291
298 297 296 296 296 296 296 297 297 297 298 301 303 303 301 300 300 300 301 301 301 301 300 300 300 300 299 299 298 298 297 297 297 296 296 296 295 295 294 294 293 293 293 294 294 295 296 296 297 297 297 297 297 298 299 300 301 301 302 302 302 302 302 302 301 300 300 300 300 299 299 298 298 298 297 297 297 296 296 295 295 294 294 294 293 292 292
296 295 295 295 295 295 296 296 296 297 298 300 302 302 300 300 300 300 300 301 300 298 297 297 298 298 298 298 298 297 297 296 296 295 295 295 294 294 293 293 292 292 292 292 292 294 295 296 296 296 297 297 297 298 299 300 301 301 301 301 301 301 301 301 301 300 300 300 299 299 298 298 298 298 298 297 297 296 295 295 295 294 294 294 293 293 292
295 295 295 295 295 295 295 295 295 296 297 297 298 300 300 299 299 298 298 298 297 296 296 296 297 297 297 297 297 297 296 296 295 295 294 294 293 293 293 293 292 292 291 291 291 293 295 296 296 296 297 297 297 298 299 300 300 300 300 300 300 300 300 300 300 299 299 299 298 298 298 298 298 297 297 297 298 297 296 296 295 295 294 294 294 293 292
295 295 295 295 294 294 294 293 294 295 296 296 297 298 299 298 297 297 296 296 295 295 295 296 297 297 297 296 296 296 295 295 294 294 293 293 293 293 292 292 292 291 291 290 290 292 294 295 295 296 296 296 297 298 298 299 299 299 299 299 299 299 298 298 298 298 298 297 297 296 296 296 296 295 295 295 296 297 297 297 296 295 294 294 294 293 293
295 295 294 294 294 293 293 293 293 293 294 295 296 297 297 297 297 297 296 296 295 295 296 297 297 297 296 296 296 295 295 294 294 293 292 292 292 291 291 291 291 291 290 289 289 291 293 294 295 295 296 296 297 297 297 298 298 298 298 298 297 297 297 297 297 297 297 296 296 295 295 294 294 294 293 294 295 296 296 296 296 295 294 294 294 294 293
295 295 294 294 293 293 293 293 292 292 293 294 295 296 296 296 297 297 297 297 296 297 297 297 296 296 296 295 294 294 294 293 293 292 291 291 291 291 290 290 290 290 288 288 288 290 292 294 295 295 295 295 296 296 296 297 297 297 297 297 296 296 296 296 296 296 295 295 295 294 294 293 293 293 292 292 293 294 294 295 295 295 295 295 294 294 294
296 295 294 294 293 293 293 293 292 292 292 293 294 294 294 295 295 296 296 296 296 297 296 296 296 295 294 294 293 292 291 290 290 290 290 290 290 290 290 290 290 289 288 287 287 289 291 293 294 294 295 295 295 295 295 296 296 296 295 295 295 295 294 294 294 294 294 294 293 293 292 292 292 291 291 291 291 292 292 293 293 293 293 293 293 293 293
296 295 295 294 293 293 293 293 293 292 292 292 293 293 293 293 294 294 294 295 296 296 296 296 296 296 295 294 293 291 290 289 289 288 288 288 289 289 289 289 289 288 287 287 287 289 291 292 293 294 294 294 294 294 294 294 294 294 294 294 293 293 293 293 293 293 293 293 292 292 291 291 290 290 290 289 289 290 290 291 291 291 292 292 292 292 292
295 295 295 294 294 293 293 293 293 293 292 292 293 293 293 293 293 293 293 294 294 294 295 295 295 296 296 295 294 293 292 291 290 289 288 287 288 289 289 289 288 288 287 287 287 289 290 291 292 292 293 293 293 293 292 292 292 292 292 292 292 292 291 291 292 291 291 291 291 291 290 290 289 289 289 288 288 288 288 289 289 290 290 290 290 291 291
295 295 295 295 294 294 294 294 294 293 293 293 293 293 293 293 293 293 293 293 293 293 293 293 294 294 294 294 294 293 293 292 291 290 288 287 287 288 289 289 288 288 287 287 287 288 289 290 290 291 291 291 291 291 291 290 290 290 290 290 290 290 290 290 290 290 290 290 290 290 289 289 289 288 288 287 287 287 286 287 287 288 288 289 289 290 290
296 295 295 295 295 294 294 294 294 294 293 293 293 293 293 293 293 293 293 293 293 293 293 292 292 292 292 293 293 292 292 291 291 290 289 287 287 287 288 289 288 288 287 287 287 287 288 289 289 289 289 289 290 289 289 288 288 288 288 288 288 288 288 288 288 288 288 288 288 288 288 288 288 288 287 287 286 286 285 285 285 286 286 287 287 288 288
295 295 295 295 295 295 294 294 294 294 294 293 293 293 293 293 293 293 293 292 292 292 292 292 291 291 291 291 291 291 291 290 290 289 288 288 287 287 287 288 288 287 287 286 286 286 286 287 288 288 288 288 288 288 288 287 287 287 286 286 286 286 287 287 287 287 287 287 287 287 287 287 287 286 286 286 286 285 285 284 284 284 284 285 285 286 287
295 294 294 294 294 294 294 294 294 293 293 292 292 292 293 293 292 293 293 292 292 292 291 291 291 290 290 290 290 290 290 290 289 289 288 288 287 287 287 287 288 287 287 286 285 285 285 286 286 286 286 286 286 286 287 286 286 285 285 285 284 285 285 286 286 285 285 285 285 285 285 285 285 285 285 285 285 285 284 284 284 283 283 283 283 284 285
295 294 294 294 294 293 293 293 293 293 292 292 292 292 292 292 292 292 292 292 292 291 291 290 290 290 290 289 289 289 289 289 288 288 288 287 287 287 287 287 287 287 286 285 285 284 284 284 285 285 285 285 285 285 285 285 285 285 285 285 284 284 284 284 284 284 284 284 284 284 284 284 284 284 284 284 284 284 284 284 283 283 282 282 282 282 282
294 294 293 293 293 293 292 292 291 291 291 291 291 290 290 290 289 289 290 290 290 290 290 289 289 289 289 289 288 288 288 288 288 287 287 287 287 287 286 286 286 286 286 285 284 284 283 283 283 284 284 284 284 284 284 284 284 284 284 285 285 284 283 283 283 283 283 283 283 283 283 283 284 284 284 284 283 283 283 283 283 283 283 282 281 281 281
293 293 292 292 292 291 291 290 290 290 290 290 290 290 289 289 288 287 287 287 288 288 288 288 288 288 288 288 288 288 287 287 287 287 287 286 286 286 286 285 285 285 285 285 284 283 283 282 282 283 283 283 283 283 283 283 283 283 283 284 285 285 284 283 283 283 283 283 283 283 283 283 283 283 283 283 283 283 283 282 282 283 284 284 283 283 282
293 293 292 292 291 291 290 290 289 289 289 289 289 289 288 287 286 286 286 286 286 286 286 287 287 287 287 287 287 287 287 287 286 286 286 286 285 285 285 285 285 285 284 284 284 283 283 282 282 282 282 282 282 282 282 282 282 282 282 282 284 284 284 283 282 282 282 282 282 282 282 282 282 282 282 282 282 282 283 282 282 282 282 283 284 285 285
293 292 292 292 291 291 290 289 289 289 289 288 288 288 288 287 286 285 285 285 285 284 284 285 286 287 286 286 286 286 286 286 286 285 285 285 285 284 284 284 284 284 284 283 283 283 283 282 282 281 281 281 281 281 281 281 281 281 281 281 282 283 283 282 281 281 281 282 282 281 281 281 282 282 282 282 282 282 282 282 282 281 281 282 284 285 286
Wind_Speed
9 8 8 8 8 10 10 11 13 11 6 5 3 6 7 3 3 7 8 5 5 10 14 11 3 2 2 4 4 5 6 7 8 9 10 11 10 9 9 10 8 8 7 8 10 12 13 14 13 12 13 13 15 22 26 27 28 29 30 30 31 30 29 29 28 27 26 24 22 21 18 17 15 15 14 13 13 13 14 14 13 13 14 14 15 14 13
8 7 7 8 8 9 11 13 13 8 5 4 6 7 7 5 6 8 9 8 9 10 9 9 4 0 1 3 4 6 6 6 6 6 7 7 7 7 8 9 9 8 7 8 10 13 14 13 17 18 18 17 14 18 26 30 29 29 30 30 30 29 28 27 27 26 25 23 22 20 18 16 15 14 13 13 14 14 14 13 12 13 13 12 12 12 12
6 5 5 8 8 8 13 14 10 6 6 8 9 8 7 6 7 8 7 9 11 7 3 5 6 3 2 4 5 5 4 4 6 7 8 8 8 9 9 8 9 9 8 8 7 10 14 11 14 19 20 19 15 16 22 26 26 27 28 27 28 28 26 25 26 25 24 23 21 19 18 16 14 13 13 14 14 13 12 11 10 10 10 10 11 12 14
3 3 4 7 6 8 13 12 6 4 6 7 7 7 7 6 7 8 7 7 9 9 4 5 7 5 4 4 4 5 4 5 6 7 7 8 9 10 11 10 9 10 10 8 6 8 14 16 13 17 20 19 16 16 20 22 21 22 23 24 25 25 24 24 24 24 23 22 20 18 16 14 13 13 13 13 13 12 10 8 9 10 10 11 13 14 15
2 3 0 4 5 7 10 7 4 6 7 7 7 7 7 8 7 6 6 7 8 9 7 4 5 5 5 4 3 4 4 5 5 6 7 8 9 9 9 9 9 10 10 10 9 11 14 19 19 17 21 22 21 22 24 23 20 19 20 22 23 23 22 23 24 22 20 19 18 16 14 13 12 12 12 12 11 10 8 9 11 11 12 13 13 14 15
3 2 4 5 6 6 5 3 3 4 5 7 8 8 8 8 6 4 5 6 5 5 5 4 4 5 4 3 3 4 5 5 6 7 6 6 7 6 7 8 8 9 11 14 19 19 17 20 21 17 19 24 26 28 29 27 24 23 22 21 20 21 21 22 22 20 18 16 15 13 11 11 10 9 9 9 8 8 9 11 12 11 11 11 12 14 16
3 2 6 2 8 7 2 1 3 6 6 6 6 8 7 2 2 3 4 5 5 5 5 4 4 5 5 5 5 5 6 5 4 6 6 6 7 8 7 8 8 9 12 16 21 22 21 23 21 16 18 23 25 25 28 29 27 26 24 22 20 20 21 21 20 19 17 15 13 11 9 8 7 7 7 6 6 7 9 9 9 8 9 11 13 15 18
3 1 3 4 9 7 3 3 5 5 4 3 4 6 6 4 5 4 4 5 5 5 5 4 4 6 7 6 5 5 5 3 5 6 6 7 8 8 9 10 11 14 17 20 22 23 25 25 21 19 22 27 28 26 27 28 28 29 27 23 21 21 20 20 20 19 16 13 10 8 7 7 6 5 3 3 4 6 6 6 6 8 10 12 15 17 19
4 4 4 3 8 10 6 3 2 1 1 2 4 1 5 5 3 4 4 4 5 5 5 5 6 7 7 6 5 4 4 7 9 8 8 9 8 9 14 18 21 23 24 26 27 27 27 26 21 21 23 25 26 27 29 29 29 32 29 23 22 23 21 20 19 16 13 9 7 6 4 3 1 1 2 3 5 7 7 6 7 9 12 14 16 18 20
4 4 4 3 6 8 4 3 4 3 4 6 7 3 3 4 2 4 4 2 4 5 5 6 7 6 6 6 6 4 6 9 11 12 11 10 10 13 17 22 24 24 23 26 28 28 28 25 19 22 23 21 20 21 27 30 29 30 29 25 25 24 21 19 17 14 11 8 6 4 3 4 4 4 5 6 9 10 9 7 8 11 13 16 18 19 21
4 4 5 4 5 6 4 6 6 4 5 7 6 4 4 4 3 4 3 3 4 4 3 4 5 5 4 6 6 5 8 10 10 10 9 9 13 17 19 19 20 21 21 24 25 24 22 20 20 24 24 23 21 19 21 26 28 27 27 26 26 25 22 20 17 13 10 7 5 5 5 5 4 4 7 9 9 8 6 7 9 12 15 18 21 23 24
4 4 4 3 4 3 1 4 4 4 4 5 7 3 5 4 5 4 2 3 3 3 1 2 3 2 4 6 7 7 9 10 9 7 7 9 13 17 19 17 17 19 19 22 20 14 8 10 17 24 27 25 23 22 20 21 23 24 24 25 26 25 22 19 15 12 9 8 7 5 4 3 4 6 7 7 5 4 5 7 11 14 17 21 24 25 26
5 5 4 3 2 1 4 2 1 3 2 5 4 4 6 4 6 4 3 2 3 4 2 1 1 4 5 7 9 9 9 10 8 7 11 14 15 18 20 17 13 13 14 17 21 15 2 8 8 18 28 27 26 27 24 19 19 25 30 30 26 22 19 17 16 14 11 8 5 2 1 2 3 3 3 3 3 3 5 10 15 18 19 21 23 24 26
4 5 4 3 1 0 2 3 3 4 3 1 2 5 5 4 5 2 2 1 3 3 1 3 4 5 6 8 9 9 9 9 7 7 11 14 15 18 20 15 9 9 10 12 19 20 6 15 17 17 22 25 26 28 24 20 23 30 32 28 23 20 19 17 15 12 8 5 3 2 2 2 1 1 1 3 3 4 7 12 17 19 20 21 23 24 26
1 1 1 2 2 2 3 1 3 2 2 3 4 6 5 3 3 2 2 2 3 3 2 3 5 6 7 8 8 8 8 7 6 7 9 10 12 15 16 13 7 7 9 9 11 15 10 8 14 12 15 20 23 23 23 26 30 30 28 25 23 20 18 15 11 9 8 8 8 6 5 3 3 3 3 4 3 5 9 13 16 18 20 22 22 24 26
1 1 2 2 3 4 3 1 2 3 5 4 5 4 3 2 1 1 0 1 0 1 2 4 6 6 7 7 7 8 7 6 6 6 7 9 13 13 13 14 9 5 8 10 9 11 9 2 5 6 13 21 23 24 27 32 32 29 26 24 20 17 15 13 12 13 12 11 8 5 3 2 4 3 4 4 4 7 10 13 15 17 19 20 21 23 26
1 3 4 3 3 3 2 2 4 6 7 5 3 2 1 1 1 2 2 4 4 4 4 5 6 6 6 7 7 7 8 7 6 6 7 10 13 12 13 15 10 2 4 12 15 15 13 10 9 11 17 25 26 27 30 32 31 28 25 21 18 16 15 15 15 14 11 9 6 3 3 3 4 2 3 3 6 8 11 13 15 16 17 18 20 23 25
4 4 4 4 5 6 6 4 5 6 5 2 2 3 1 2 4 4 3 4 5 5 5 5 5 5 6 6 7 8 9 8 7 6 8 11 14 13 13 15 13 7 7 14 18 20 20 18 16 13 20 29 29 28 29 30 27 25 22 19 18 17 17 16 14 11 9 7 5 5 4 4 4 2 2 5 7 9 11 13 14 14 14 17 20 22 23
5 4 5 6 7 8 8 7 6 6 4 1 1 2 3 4 5 5 5 5 6 5 5 6 6 6 6 6 7 8 9 8 7 6 6 10 13 12 12 15 18 18 16 14 12 16 23 21 16 17 25 32 32 29 29 27 24 23 22 19 17 17 18 16 12 8 7 6 7 6 5 5 3 3 4 6 8 9 10 12 12 11 12 16 18 21 24
4 6 9 9 8 7 6 6 6 6 5 4 4 4 3 3 3 3 4 6 5 5 6 7 6 5 5 5 7 8 7 7 6 5 8 11 12 12 13 16 18 21 22 13 11 17 21 12 18 28 31 33 32 28 26 25 23 23 21 17 16 18 18 15 9 6 7 7 7 7 6 6 5 5 5 6 6 7 9 10 10 9 11 14 18 22 25
6 8 8 7 8 8 6 5 7 8 6 5 5 6 6 5 4 4 5 6 6 6 6 4 3 4 5 5 6 7 7 6 6 7 10 12 10 8 12 15 15 17 18 11 11 17 15 13 24 29 30 32 31 29 27 25 22 20 19 16 17 18 17 11 7 7 7 7 7 6 7 7 7 6 6 7 6 7 9 10 9 8 10 14 19 26 28
5 6 5 4 5 7 6 5 8 9 7 6 4 4 8 9 6 6 6 6 7 6 4 1 1 2 3 5 6 7 6 6 8 10 13 13 7 4 10 16 20 22 17 6 5 7 10 21 28 28 28 29 30 29 27 23 20 19 17 15 15 17 15 9 5 5 5 7 8 7 7 7 7 7 7 6 6 7 10 11 10 9 11 15 22 29 29
6 6 6 4 4 6 7 7 7 7 7 7 6 5 7 8 8 7 7 7 7 6 3 1 2 2 4 5 6 7 7 8 11 13 14 13 9 8 11 13 16 23 20 2 13 9 8 21 32 30 27 28 29 27 24 21 17 15 14 13 13 15 13 7 4 4 4 7 9 8 7 7 8 9 7 6 6 8 10 12 12 11 11 15 23 29 29
7 7 6 5 5 6 7 7 7 8 7 7 7 6 6 6 7 7 8 7 6 5 4 3 6 5 5 5 6 7 8 10 14 15 15 16 12 10 11 10 11 20 22 1 19 14 10 22 33 30 27 29 29 26 22 17 14 14 15 15 15 13 11 7 5 5 5 6 9 8 6 6 8 7 6 6 8 10 12 13 12 11 13 17 23 28 31
8 6 5 4 5 6 6 6 7 8 6 4 5 6 7 7 6 7 7 6 4 4 4 4 5 4 3 6 7 9 9 12 16 16 13 13 12 12 12 11 7 11 12 7 20 13 8 24 33 27 26 28 26 23 20 15 14 17 19 17 14 10 8 6 5 9 10 8 8 6 4 5 7 7 6 7 10 12 15 14 11 11 15 20 22 26 31
7 5 5 5 6 6 6 6 6 6 6 6 6 6 6 6 5 6 6 6 5 5 5 4 3 3 4 7 9 11 12 14 16 14 9 9 11 13 13 9 8 9 10 17 19 9 7 27 33 26 26 27 22 19 19 16 17 19 16 13 9 5 3 5 7 11 11 7 5 5 4 6 8 8 6 8 11 14 16 15 11 13 18 22 22 24 29
5 4 4 5 7 6 5 6 6 6 7 8 7 6 5 4 3 4 4 4 5 6 7 6 3 3 5 8 10 12 13 12 10 9 9 10 12 13 12 11 14 13 14 16 12 5 10 28 30 25 23 21 18 18 20 19 18 17 13 9 5 2 3 7 7 8 6 4 5 8 7 7 9 8 6 10 13 15 15 13 12 15 20 22 22 24 27
5 2 1 3 8 9 7 8 7 6 7 7 6 6 8 6 4 5 6 6 5 6 7 6 2 1 5 10 10 10 11 9 7 10 12 11 11 14 18 22 21 18 16 13 8 10 20 28 26 21 17 13 14 19 20 18 16 14 12 10 8 7 8 8 7 6 5 5 8 11 10 8 9 7 8 10 14 16 13 11 13 16 20 21 21 23 25
7 4 4 6 9 8 7 6 6 6 7 7 5 5 6 4 2 2 4 4 3 3 4 4 2 2 6 9 9 7 8 8 8 11 12 11 13 14 17 22 26 27 25 22 21 25 29 30 29 29 26 20 18 19 18 17 15 14 14 14 13 12 10 8 7 7 7 6 9 11 9 7 6 7 8 9 13 14 10 9 13 16 18 19 20 22 24
6 4 2 3 5 4 5 6 6 6 6 5 4 4 3 2 3 2 5 3 3 3 4 4 4 5 7 8 7 7 7 7 11 12 13 18 22 18 15 21 28 28 25 24 25 28 30 31 31 29 26 25 23 20 18 18 18 17 16 14 11 10 9 8 7 6 5 6 9 10 8 5 5 7 7 7 11 11 8 8 12 15 17 18 19 20 22
5 1 2 4 5 4 4 5 5 6 6 5 4 5 3 1 2 5 7 5 5 5 4 7 6 6 7 7 8 9 9 11 15 15 17 24 28 24 21 25 28 23 21 24 27 29 31 32 30 26 23 24 23 19 18 18 17 16 15 12 9 9 9 8 6 5 4 7 9 10 6 4 3 5 5 6 9 9 8 9 12 14 16 18 18 18 19
4 1 2 3 4 4 4 5 5 5 7 6 6 6 5 3 3 4 4 4 5 6 6 7 5 5 7 12 13 12 13 16 18 19 20 24 26 25 26 28 28 27 28 30 29 29 31 31 28 24 23 23 22 19 16 15 15 15 14 12 10 9 8 8 7 5 6 7 8 8 4 2 2 6 7 7 8 9 9 8 10 13 15 17 18 18 17
2 2 2 3 5 5 5 5 5 6 7 7 7 6 2 3 4 4 5 6 7 7 6 6 6 8 12 14 13 14 16 18 18 20 21 23 24 25 27 28 30 32 33 32 31 30 28 25 23 23 22 21 20 19 16 14 13 13 12 11 10 8 8 9 8 6 6 6 7 7 4 2 5 8 9 8 8 10 10 8 8 11 14 16 17 18 16
5 4 5 6 6 6 6 6 5 6 6 7 5 3 5 7 7 7 8 8 7 7 7 8 10 14 16 15 15 17 18 15 13 16 20 23 24 24 25 27 30 33 34 34 34 33 29 24 22 22 22 22 20 18 16 13 11 11 10 8 6 5 6 7 7 5 4 5 7 7 5 5 6 10 13 12 10 10 10 8 6 8 12 15 16 16 16
8 7 7 7 6 6 5 5 5 6 6 5 2 4 6 8 9 10 9 9 10 12 13 14 15 18 19 18 17 18 18 16 16 19 22 25 25 26 28 30 31 33 34 34 32 31 30 28 24 22 23 24 23 20 17 13 10 9 8 7 7 7 4 3 6 8 8 8 8 7 6 7 9 12 14 13 10 9 7 6 7 7 9 14 15 15 15
10 8 6 6 7 7 6 6 6 6 5 4 4 7 9 11 13 14 14 16 18 18 17 16 17 18 18 17 17 18 20 21 22 23 24 25 26 29 31 31 30 29 29 29 29 29 29 28 26 25 26 27 26 22 20 18 17 16 16 17 19 17 10 7 7 9 10 10 10 9 10 12 15 19 22 20 13 5 3 5 9 7 7 11 14 14 15
11 10 7 6 8 9 10 10 10 9 10 9 9 11 13 15 17 18 19 20 21 20 18 18 19 20 19 19 21 22 23 23 24 24 24 25 27 30 29 27 26 25 22 21 24 27 28 28 28 28 30 31 29 26 24 24 26 26 25 25 27 26 23 19 17 17 18 18 17 17 18 19 21 24 26 27 24 18 11 8 8 7 7 10 13 13 15
13 12 10 9 10 12 14 15 16 16 16 14 13 16 19 20 21 22 23 23 22 21 20 19 20 21 22 23 23 23 24 24 25 25 25 26 29 30 27 23 23 22 19 18 21 26 27 27 28 30 32 33 32 30 29 28 28 28 28 27 27 27 27 27 26 25 24 24 24 23 23 23 24 25 26 26 26 26 22 16 11 7 6 9 12 13 15
10 10 11 12 12 13 16 21 23 21 18 15 15 18 21 23 22 21 21 19 16 12 12 14 17 19 20 21 21 21 22 23 24 24 24 25 28 27 25 24 23 21 19 20 24 27 26 26 27 30 31 32 31 31 30 28 27 27 28 28 27 27 27 27 27 26 26 25 25 25 25 25 25 26 25 25 25 26 26 24 20 13 10 12 13 13 14
7 8 10 11 11 13 17 22 24 24 23 21 20 20 22 23 22 20 18 16 11 9 14 20 22 20 20 20 19 20 21 23 23 22 22 24 25 23 22 24 25 23 22 23 25 26 25 25 26 27 28 29 29 28 27 25 25 25 25 26 26 26 26 26 27 27 26 25 25 24 23 23 24 24 24 25 25 25 24 25 24 21 20 21 20 17 14
8 10 11 10 10 12 15 18 22 25 25 24 23 24 24 25 24 21 20 21 22 23 25 26 23 20 21 22 22 23 25 26 25 24 24 23 22 19 17 19 21 22 22 23 24 24 24 25 25 25 25 25 25 24 23 23 22 23 24 25 25 25 25 26 26 26 25 24 24 23 22 22 23 24 24 24 24 24 23 23 23 23 22 23 24 23 20
10 12 12 10 10 12 15 17 21 24 23 21 23 25 26 26 26 24 24 26 28 29 29 27 24 21 21 21 22 23 24 26 27 28 27 25 21 17 15 16 19 22 23 23 23 23 23 24 24 23 22 20 20 20 20 21 21 22 22 23 24 25 25 25 25 24 23 23 23 23 23 24 24 25 25 24 24 23 22 22 22 22 22 22 23 23 23
12 12 12 10 10 11 13 14 17 19 19 20 22 24 25 26 27 27 27 28 27 26 25 25 24 22 20 19 19 18 18 20 23 25 25 24 23 21 17 16 18 22 23 23 22 22 23 23 23 21 19 17 17 17 19 20 21 21 22 22 23 24 24 24 23 23 23 23 23 23 24 25 25 25 25 24 24 23 22 21 21 21 21 21 21 21 22
14 13 12 12 12 12 12 12 14 14 15 18 21 24 25 26 26 26 26 25 25 24 23 22 21 20 20 19 19 18 17 18 19 20 19 19 20 20 18 15 17 21 24 23 22 21 21 21 21 19 17 16 16 18 20 22 21 21 21 22 22 23 24 24 23 22 22 23 22 22 23 23 23 23 23 23 23 22 21 20 19 19 18 19 19 19 20
14 14 14 14 14 14 14 14 14 14 15 17 20 22 23 23 23 23 24 23 22 21 21 20 20 20 21 20 20 21 21 21 20 20 19 16 14 15 15 13 14 19 22 23 22 20 19 18 18 18 18 17 18 20 22 23 22 21 21 22 22 22 23 23 22 21 20 20 20 20 20 21 21 21 21 21 22 22 21 20 19 18 18 18 18 18 18
14 14 14 14 14 14 16 17 18 17 17 18 17 17 18 20 21 21 21 20 19 18 19 20 20 21 21 22 22 21 21 21 21 21 20 19 16 14 14 13 12 15 19 22 23 20 18 16 17 18 18 19 19 20 22 23 23 22 22 21 21 21 22 22 21 19 18 18 18 18 18 19 19 19 19 19 20 20 21 21 20 19 17 17 17 16 16
14 14 14 13 14 15 16 17 17 16 15 12 10 10 12 15 16 16 16 17 17 17 18 19 21 21 20 21 21 20 20 19 18 17 17 18 17 16 16 14 12 12 15 20 22 21 17 16 17 18 19 20 21 22 22 22 22 22 23 22 21 20 20 20 20 18 17 16 16 16 16 17 18 18 18 19 19 20 21 21 20 19 18 17 17 17 16
11 11 12 13 14 15 15 15 14 13 11 11 11 11 12 13 13 13 13 14 16 18 18 19 20 20 19 19 18 18 17 17 16 14 14 14 15 16 17 16 14 12 13 18 21 21 19 17 18 18 19 20 22 22 21 21 21 22 22 22 21 20 19 19 18 17 16 16 16 16 16 17 17 17 18 18 19 19 20 20 20 19 19 19 19 19 18
12 13 13 13 14 15 16 16 13 12 12 14 16 16 16 16 17 18 17 16 17 18 18 18 19 19 19 18 17 16 15 15 15 14 13 13 13 15 16 16 15 13 14 16 19 21 20 18 17 18 18 19 20 20 19 19 19 20 20 19 18 18 17 17 17 17 16 16 16 16 16 16 16 16 17 17 18 18 19 19 19 19 20 22 23 22 21
16 18 18 18 18 19 18 16 15 16 17 18 17 16 15 16 17 19 19 19 19 18 17 16 17 17 17 17 16 14 13 13 13 13 13 14 14 15 15 16 16 15 14 15 17 18 19 18 17 17 17 17 17 16 15 15 16 18 18 18 16 15 15 16 17 17 16 16 16 16 15 15 15 15 15 16 17 17 18 18 18 20 22 24 25 25 25
15 16 16 17 19 19 19 18 17 17 18 18 16 14 15 16 18 18 18 18 18 18 17 16 15 14 14 15 14 12 11 11 11 12 12 13 14 13 14 16 16 15 15 15 15 15 15 16 17 17 15 14 14 13 13 13 14 15 16 16 15 14 14 15 16 15 15 15 14 14 14 14 14 15 15 15 16 17 18 18 20 21 22 23 24 24 25
14 15 16 17 17 17 19 18 16 14 14 15 15 15 15 16 17 18 17 16 16 16 15 13 13 12 12 13 14 14 13 13 13 12 12 12 13 12 12 14 15 15 14 14 14 13 12 13 16 16 15 14 13 13 12 12 13 14 14 14 14 13 12 13 14 13 13 13 12 12 13 13 14 14 14 14 15 15 16 17 18 19 20 21 21 22 22
Wind_Direction
249 249 265 269 263 266 271 272 274 282 320 352 301 261 258 250 241 254 259 260 254 266 282 296 334 59 261 261 265 279 286 285 286 286 285 287 291 292 294 294 290 286 282 273 263 239 199 175 173 183 189 200 210 203 195 196 199 199 196 193 190 190 192 192 195 197 197 198 198 200 202 204 209 213 218 227 236 245 253 257 261 267 275 283 289 288 287
246 236 253 267 268 274 275 269 270 284 317 308 279 272 273 264 246 253 273 283 266 260 281 301 312 113 216 267 282 285 290 296 305 313 312 309 310 316 318 311 309 313 311 302 287 264 237 190 162 168 188 203 216 210 197 194 196 196 194 191 187 188 190 191 193 193 193 194 196 198 201 203 205 210 219 232 242 249 253 256 262 272 279 282 280 280 287
260 224 238 269 277 278 275 276 287 310 300 282 279 278 277 277 274 274 292 300 284 273 302 311 301 312 350 317 301 300 314 339 352 346 331 326 326 323 321 316 313 315 316 313 304 290 278 242 178 167 181 197 212 216 200 191 189 190 191 188 185 185 188 189 189 189 190 192 193 195 197 198 203 216 230 240 246 248 249 256 268 277 279 276 277 285 294
269 176 228 270 288 289 284 287 298 290 269 264 258 252 248 244 255 273 290 290 278 277 289 290 288 311 348 341 330 343 354 357 355 340 324 321 318 313 312 315 317 315 314 312 294 283 288 277 236 190 179 182 191 195 187 179 180 185 187 186 185 184 184 183 182 183 184 185 187 189 192 200 213 226 234 237 239 241 244 261 277 280 277 277 282 289 297
283 112 265 321 354 324 291 273 221 212 230 244 249 251 247 231 222 239 256 249 255 277 300 313 314 337 3 15 3 344 335 339 332 306 298 303 303 306 313 320 326 323 320 322 309 289 282 279 265 227 193 181 177 177 174 170 175 183 186 188 186 179 176 176 173 174 176 178 182 188 195 210 220 224 229 231 232 238 254 277 283 278 274 276 283 294 306
279 79 43 2 328 285 259 215 194 228 249 252 256 259 253 241 228 226 251 266 288 319 356 24 2 344 343 326 319 322 315 311 300 291 295 304 310 320 322 317 320 321 316 314 309 301 289 279 272 246 207 187 175 171 169 168 171 178 184 189 185 173 170 172 171 173 177 178 182 190 198 209 218 224 231 234 238 258 281 285 276 268 270 281 295 306 311
262 72 66 350 267 250 193 162 273 281 278 270 273 272 264 269 347 342 335 342 5 28 43 47 10 335 319 310 311 305 289 286 310 323 326 330 329 325 316 310 310 309 309 307 303 300 294 284 269 237 198 178 167 163 164 165 167 173 181 187 181 169 166 170 172 174 177 177 179 187 198 212 228 237 240 245 264 289 295 282 268 272 286 300 309 312 313
259 262 130 211 259 278 303 293 294 306 310 342 358 310 303 1 22 18 13 10 23 32 27 23 1 331 318 318 307 280 279 331 4 350 333 329 328 323 321 320 313 307 306 303 296 294 294 286 259 216 185 171 166 164 165 167 167 169 175 180 175 167 164 165 166 165 163 165 172 186 208 226 234 240 249 275 311 327 319 293 287 302 312 317 319 319 318
223 229 210 227 282 293 294 277 281 305 172 125 112 248 291 324 23 90 78 29 9 6 0 3 359 344 339 336 314 296 339 1 352 335 327 329 329 332 330 322 312 307 303 297 291 287 285 277 247 206 180 168 166 166 167 170 168 164 166 171 169 167 161 155 153 151 150 156 172 188 207 213 172 78 42 21 1 352 341 322 319 326 329 330 328 324 322
186 208 243 265 276 278 267 208 209 191 168 156 135 123 304 316 25 77 86 52 1 356 357 357 0 6 357 323 295 307 350 351 338 329 329 335 339 335 326 317 311 308 307 304 296 284 275 265 227 183 168 168 172 171 168 166 161 157 160 165 166 164 158 148 144 144 147 156 163 146 112 87 75 62 40 13 354 344 337 334 340 342 339 335 331 327 323
176 189 226 233 244 255 222 191 199 200 186 157 109 55 306 294 344 15 47 45 11 1 10 13 11 12 338 296 285 312 332 328 324 321 324 334 334 325 317 317 314 311 317 319 302 277 263 251 216 183 174 176 172 164 158 154 151 153 159 162 161 156 149 143 140 140 142 144 136 114 94 76 55 21 355 345 336 329 329 337 341 342 342 340 335 330 325
223 217 231 243 255 268 173 163 180 213 199 113 74 355 274 279 307 319 56 63 358 314 312 47 23 321 267 276 288 301 310 310 312 326 333 326 322 317 313 316 319 315 326 333 313 279 245 231 213 186 171 165 152 142 144 147 146 144 141 141 142 138 134 132 132 135 136 129 119 106 77 37 353 331 325 319 308 302 317 332 336 338 342 341 334 327 322
240 240 249 264 263 356 10 2 298 286 328 63 79 237 237 250 265 242 137 145 266 275 254 163 214 243 240 268 291 295 300 306 310 327 327 317 315 314 305 304 317 319 321 334 328 318 41 110 145 155 151 146 138 139 150 155 142 129 124 124 124 123 124 126 124 124 123 114 101 80 28 322 300 303 293 260 254 294 323 334 336 333 331 328 324 321 318
212 203 218 259 275 94 288 290 329 344 341 54 204 243 253 269 274 264 117 241 297 323 290 207 226 256 263 274 287 292 300 307 311 319 323 320 318 313 301 294 314 328 322 336 335 327 2 98 100 113 129 132 132 139 148 145 130 123 121 121 121 121 123 123 116 111 107 101 103 113 122 127 58 27 230 235 255 300 326 335 335 328 319 315 314 314 314
252 210 235 271 286 231 210 234 2 8 190 209 270 286 293 307 335 21 24 354 16 14 322 271 257 267 277 279 282 290 296 301 305 307 315 317 310 308 307 303 313 340 340 347 345 331 337 93 107 109 127 139 141 140 137 130 124 120 118 120 122 120 116 110 104 104 108 112 111 101 93 74 7 331 254 238 270 309 321 329 328 321 313 311 310 310 311
13 326 281 228 224 228 218 254 307 240 211 237 272 270 280 322 37 98 207 275 274 243 265 274 273 275 278 278 284 294 292 289 296 299 306 308 300 299 308 311 314 342 333 323 330 330 316 231 168 190 177 158 144 134 129 125 123 120 118 119 116 110 107 107 111 115 115 110 102 87 82 52 345 310 237 235 290 309 315 322 321 315 312 312 312 312 312
303 260 260 257 254 258 245 222 239 240 238 249 245 171 179 283 223 177 222 243 250 254 255 262 272 277 277 280 292 298 291 285 284 285 292 296 292 296 313 318 320 357 309 299 305 308 289 249 230 217 177 147 130 126 127 124 120 118 114 110 109 111 116 119 119 121 119 109 107 117 105 56 8 328 223 257 304 311 315 320 317 311 312 316 317 315 315
329 298 281 300 311 311 306 280 273 281 272 252 118 114 153 228 218 207 216 237 252 260 262 270 278 277 280 294 302 300 295 287 276 278 288 290 293 306 321 318 311 300 275 277 284 289 278 257 238 204 155 133 124 124 125 119 116 115 111 111 115 121 123 120 119 126 125 113 122 136 106 57 27 356 280 301 317 318 316 317 312 308 314 320 320 320 321
332 312 306 319 314 304 304 305 315 329 337 356 161 198 217 225 228 223 218 234 253 259 260 265 269 274 288 302 301 296 291 280 270 274 276 279 295 313 317 309 303 293 280 275 272 273 269 251 210 163 136 127 124 124 121 117 115 116 118 121 123 125 124 120 119 133 140 130 132 131 100 69 49 16 335 326 328 325 319 312 304 304 317 322 324 329 329
294 281 289 306 313 311 323 337 336 336 336 314 296 285 258 236 256 268 244 233 238 245 250 252 258 279 298 301 298 298 291 276 272 274 266 268 284 305 310 310 302 279 265 250 208 224 244 222 148 134 127 125 125 123 120 119 119 121 125 129 133 132 126 119 119 145 157 144 136 127 103 77 59 32 0 343 334 329 325 312 297 305 326 328 332 339 336
283 275 285 312 324 320 333 343 322 313 310 296 294 303 293 272 265 278 266 248 238 238 243 256 280 298 301 301 303 302 300 299 293 290 288 279 269 280 302 313 315 292 272 249 197 204 205 151 129 129 128 128 129 127 125 126 125 123 128 138 143 135 124 119 137 160 158 144 133 124 110 89 59 29 2 346 332 326 330 319 300 312 337 341 345 349 342
273 268 287 314 307 295 293 294 291 293 295 283 257 265 278 266 241 236 253 261 261 256 257 287 315 289 285 292 299 296 294 303 300 299 306 302 290 331 332 324 329 326 307 273 164 183 165 134 129 131 130 130 131 129 130 130 128 128 137 147 145 133 124 126 144 152 150 145 135 124 114 91 48 19 2 345 327 324 332 323 306 312 338 350 354 354 346
255 259 270 260 245 264 271 267 267 278 290 281 251 235 253 248 224 219 237 249 257 270 287 212 172 208 260 277 293 296 296 302 301 300 306 305 309 351 346 322 323 322 310 241 128 144 164 134 129 132 133 132 131 131 131 128 127 138 152 152 140 129 120 109 88 84 117 140 132 120 107 76 33 14 14 7 346 336 333 323 309 309 326 342 351 356 351
267 262 260 247 240 261 269 270 273 277 282 278 263 256 263 249 218 213 227 231 233 251 266 212 188 202 251 279 295 299 301 308 307 306 312 316 325 353 346 319 311 309 305 188 133 159 180 135 129 131 132 132 133 132 130 127 132 146 148 139 127 112 93 79 68 59 69 111 122 116 97 53 23 18 37 35 12 358 345 328 309 303 315 329 342 353 355
276 274 277 276 275 277 278 278 273 263 258 267 269 268 273 270 244 225 220 210 203 220 231 207 191 206 274 306 312 311 311 312 311 315 325 334 349 8 355 340 341 320 312 138 147 179 170 127 129 131 129 132 136 132 128 130 132 132 129 123 111 90 77 90 80 59 64 90 107 102 75 33 29 42 52 32 8 355 347 336 316 306 320 329 337 348 353
285 290 292 283 276 276 278 278 270 256 248 253 257 263 280 289 275 252 223 183 180 209 207 189 200 261 305 317 317 316 315 314 317 327 346 359 5 5 355 5 53 47 57 113 143 186 122 119 128 130 126 132 138 137 139 137 124 119 119 116 108 90 98 109 74 56 65 86 83 59 37 34 49 59 44 11 357 344 339 336 325 321 331 336 338 344 349
291 301 322 307 291 282 270 263 267 272 265 256 249 255 270 269 253 257 239 187 189 217 207 192 212 288 329 333 326 321 320 320 328 350 10 19 14 8 18 59 82 76 77 104 145 192 112 116 124 127 130 139 145 142 140 133 121 118 122 124 127 130 108 100 72 50 53 58 35 25 25 53 73 68 22 356 350 341 335 334 329 327 333 339 341 344 347
278 267 52 284 274 272 265 258 263 275 273 265 257 260 264 252 214 205 202 180 186 215 209 196 202 332 344 334 329 332 335 340 6 22 24 31 33 34 51 71 82 85 84 87 89 81 87 94 94 88 91 115 138 143 141 136 134 137 135 126 122 115 101 91 71 49 39 35 39 37 46 82 90 52 10 358 352 342 336 336 333 328 329 333 337 343 348
276 252 209 230 253 273 289 284 284 286 276 270 270 270 266 255 206 215 222 188 163 212 207 181 142 34 353 341 343 352 348 356 34 42 41 55 58 51 61 75 77 75 75 71 68 72 75 74 67 59 53 63 95 121 128 125 124 125 116 104 98 93 81 57 41 37 31 43 58 52 57 90 80 25 11 6 352 339 329 332 337 333 330 329 332 339 346
279 276 283 280 283 306 320 308 300 296 290 287 290 282 259 155 121 275 268 223 169 197 198 146 95 32 6 3 8 6 2 29 58 60 63 69 64 54 60 74 71 65 61 59 62 67 68 64 61 55 49 55 72 86 90 90 92 94 91 83 73 60 41 22 20 27 35 65 67 49 49 86 69 23 15 7 350 334 316 326 337 336 333 333 335 339 344
278 318 19 320 304 307 308 302 300 300 299 297 289 285 280 214 192 246 251 220 177 177 155 112 79 22 11 34 39 32 46 74 79 74 73 73 66 56 56 67 70 66 56 51 55 62 65 62 59 54 50 54 60 65 69 71 72 73 75 72 58 43 33 24 21 29 63 81 61 36 43 108 82 16 360 348 343 328 310 322 338 339 339 341 343 347 350
299 68 71 307 311 337 337 326 325 324 322 317 299 287 279 249 212 210 208 171 143 134 115 94 69 35 59 78 73 61 69 82 80 71 70 71 67 61 58 61 66 66 59 52 51 55 61 62 59 53 50 50 50 54 60 63 63 63 63 58 50 47 42 34 31 47 83 82 52 30 38 127 349 340 333 331 330 316 305 320 340 342 343 347 351 355 356
18 48 39 357 356 2 349 338 338 338 336 325 307 303 349 71 89 106 113 111 110 107 94 81 77 85 92 96 92 79 75 75 70 64 62 61 61 60 59 60 62 62 59 56 54 54 60 66 65 58 51 47 46 47 51 58 63 59 51 47 48 48 42 39 45 71 95 72 34 19 18 350 314 310 310 316 315 302 299 314 337 344 348 351 356 2 2
69 55 35 27 16 358 342 340 341 331 321 315 312 350 66 78 83 93 102 106 104 99 94 91 92 93 93 93 90 84 79 74 66 60 58 56 55 56 57 58 60 60 57 55 53 51 53 60 63 57 50 48 47 45 45 54 64 59 53 55 45 19 17 35 49 67 77 48 27 20 13 355 323 307 305 306 300 296 302 315 328 344 355 356 356 4 8
58 51 41 34 21 0 344 335 327 315 311 320 11 69 80 87 91 89 90 96 97 94 91 91 94 95 94 92 90 87 82 78 75 70 64 59 57 55 53 53 53 52 51 49 47 47 51 54 56 55 50 47 45 43 44 54 63 59 56 49 22 360 2 63 60 56 58 54 44 32 14 2 357 352 345 335 309 283 288 322 336 342 358 360 358 4 10
49 47 46 39 24 17 9 347 332 331 337 1 64 81 77 77 80 80 81 85 88 89 88 87 91 96 96 93 89 85 82 80 78 74 70 66 62 58 55 52 48 47 45 40 37 43 51 52 51 53 52 47 45 46 51 56 60 58 55 51 44 44 59 85 69 55 52 46 37 29 26 29 33 36 36 32 20 344 310 348 355 355 1 360 358 3 11
54 53 52 43 31 30 29 17 12 25 32 31 49 74 80 76 77 82 87 88 90 92 91 87 86 88 87 85 83 81 79 79 77 74 72 70 65 60 56 50 46 46 42 31 29 40 50 50 48 50 49 45 45 50 55 59 60 60 58 56 54 53 57 58 54 50 48 47 47 48 48 48 47 47 49 49 45 43 41 17 349 347 9 12 4 5 12
63 56 49 45 40 39 40 39 41 49 51 44 46 64 77 82 84 88 92 95 99 102 101 96 94 93 90 87 83 79 77 77 77 74 71 69 66 62 56 47 43 44 39 30 33 43 48 48 48 49 48 46 47 51 55 58 61 61 59 57 55 54 53 53 52 52 51 50 51 50 49 47 46 44 45 47 48 49 47 33 6 344 356 11 9 9 14
65 53 47 46 41 40 46 49 49 49 53 55 55 61 72 81 87 92 95 100 107 112 103 92 91 90 87 84 81 78 76 76 75 74 71 69 68 66 58 49 46 45 40 38 42 46 46 46 48 49 49 48 49 52 53 56 60 61 60 58 56 54 52 50 50 50 49 48 47 45 43 43 44 44 43 43 45 48 46 42 36 27 13 11 11 9 9
67 57 50 45 39 39 46 51 50 48 51 57 59 60 67 75 79 81 82 85 89 90 85 83 82 80 77 77 77 75 75 74 73 72 72 69 67 65 56 45 41 40 39 41 46 48 46 46 47 47 47 49 51 53 54 56 58 60 60 59 57 55 53 51 50 49 47 46 45 44 41 39 41 43 43 42 43 44 44 43 42 38 31 28 28 26 20
79 75 67 55 46 46 49 53 55 53 53 56 59 61 65 69 71 71 70 70 70 71 73 77 80 81 83 86 84 80 77 75 71 68 67 63 60 60 54 41 34 35 38 43 47 50 49 48 46 45 45 47 51 54 56 57 59 61 62 61 59 57 54 53 51 49 47 46 45 43 41 41 42 43 43 41 41 42 41 39 39 38 35 32 32 33 34
82 81 76 67 60 59 60 62 63 60 56 57 61 64 65 66 67 66 65 65 66 67 67 68 72 77 82 88 91 89 85 80 73 68 65 61 58 59 56 45 37 37 40 43 48 50 50 49 48 46 45 46 50 55 59 60 62 63 64 64 63 60 57 54 52 51 50 49 47 44 43 43 42 42 42 40 39 39 39 37 36 35 33 31 31 32 33
86 83 79 74 70 69 68 69 71 69 65 63 65 67 68 67 67 66 65 63 63 63 63 63 64 64 66 73 82 88 88 84 79 73 69 65 63 64 64 57 47 42 41 44 48 50 49 49 49 49 48 50 55 60 63 64 65 66 66 66 65 62 59 55 53 52 50 49 47 45 44 43 42 42 41 39 37 37 38 37 34 31 29 29 30 32 33
100 95 92 90 87 83 80 77 76 75 73 71 72 73 73 71 69 69 70 68 66 64 63 60 58 56 56 62 69 74 76 77 79 77 72 64 58 58 60 60 53 47 44 44 46 48 48 49 50 50 49 53 60 64 64 62 63 66 67 66 64 62 59 55 52 51 51 50 49 47 46 45 44 42 41 39 37 36 36 36 35 31 27 26 28 30 32
112 113 113 110 105 101 97 93 89 87 86 83 81 80 79 80 79 78 77 76 74 71 67 64 60 56 55 60 70 77 76 74 73 73 72 67 56 49 49 52 53 50 46 44 44 46 47 49 51 52 51 54 61 66 64 59 57 61 65 66 64 62 58 55 51 51 51 51 50 48 48 47 45 42 41 40 38 36 35 35 35 33 29 27 25 25 27
117 122 126 124 120 117 115 110 106 102 95 89 85 84 85 88 88 86 83 81 78 75 72 70 67 62 60 63 70 76 78 76 73 71 73 74 70 59 52 52 53 51 47 44 43 44 46 50 54 55 54 55 60 64 64 59 54 53 56 60 61 59 57 54 51 49 50 51 49 47 46 46 45 43 41 40 40 38 36 34 34 32 29 25 23 23 24
123 125 126 128 130 134 133 126 118 111 104 100 102 106 102 96 94 93 92 89 84 81 79 77 74 69 65 63 65 69 73 75 74 71 70 69 65 57 52 53 53 50 47 46 44 42 44 51 56 56 55 56 58 60 62 61 57 52 51 53 55 55 54 52 49 46 47 50 50 47 46 46 46 45 43 43 42 39 37 34 32 30 27 24 21 22 24
123 130 133 131 129 126 119 110 104 103 102 103 106 105 98 88 82 83 90 95 94 89 84 80 77 75 72 68 66 67 70 73 73 71 68 64 58 53 53 54 55 54 52 50 46 41 40 47 54 55 53 52 52 52 54 57 57 54 51 52 54 54 53 51 48 47 48 52 52 49 47 47 47 45 44 44 44 42 41 38 34 31 30 31 30 29 28
86 86 86 87 88 86 83 80 75 71 74 83 88 85 78 69 61 57 61 72 82 84 81 78 75 74 73 73 71 69 69 73 76 75 69 64 61 57 54 53 56 60 59 53 46 40 37 40 50 55 53 50 49 47 46 50 54 54 51 51 54 57 56 53 50 50 54 58 61 59 56 53 51 49 47 46 46 45 43 40 36 36 40 44 45 42 40
80 77 73 72 74 74 73 71 66 61 62 69 78 85 85 76 64 57 56 59 63 67 71 75 75 73 71 71 71 69 70 76 81 79 70 66 66 65 59 54 53 56 54 48 43 38 35 36 45 52 51 48 48 45 41 44 52 54 51 48 50 56 59 57 53 53 57 65 68 68 64 61 60 57 53 51 50 51 50 49 47 48 49 50 49 48 48
87 87 86 86 86 85 82 78 73 67 62 62 69 85 96 89 76 67 63 60 54 49 51 61 70 72 68 65 64 66 71 78 83 82 75 67 65 65 63 56 51 49 48 46 43 40 37 36 41 45 47 46 45 43 41 47 56 58 53 47 44 48 56 60 57 53 56 63 68 68 68 67 66 64 61 59 58 57 57 57 55 52 50 48 48 48 49
90 95 98 99 98 98 95 90 82 75 70 67 67 77 94 99 89 75 65 57 47 40 40 50 63 69 66 63 64 68 73 76 77 75 71 62 55 52 52 50 47 47 48 46 43 43 45 41 37 37 41 45 46 44 46 54 61 63 60 51 44 43 54 64 63 57 56 61 67 69 70 71 70 67 65 63 61 57 55 55 54 52 50 50 50 49 49